Location: Johnson City
(36.3130°N, 82.3540°W)
Time: 09:57:45
(UTC-04:00)

Envisat - Visible Passes

Search period start: 20 May 2018 00:00
Search period end: 30 May 2018 00:00
Orbit: 764 x 766 km, 98.2° (Epoch: 20 May)

Date Brightness Start Highest point End Pass type
(mag) Time Alt. Az. Time Alt. Az. Time Alt. Az.
20 May 5.6 22:11:11 10° SW 22:13:58 15° W 22:16:46 10° WNW visible
21 May 4.6 21:32:23 10° SSW 21:36:58 34° W 21:41:36 10° NNW visible
22 May 3.2 20:55:06 10° S 21:00:10 82° WSW 21:05:16 10° NNW visible
23 May 5.4 21:59:10 10° SW 22:02:43 19° W 22:06:17 10° NW visible
24 May 4.1 21:20:58 10° S 21:25:46 44° W 21:30:38 10° NNW visible
26 May 5.1 21:47:24 10° SSW 21:51:28 24° W 21:55:35 10° NW visible
27 May 3.7 21:09:37 10° S 21:14:36 58° W 21:19:37 10° NNW visible
28 May 5.7 22:14:55 10° WSW 22:17:17 13° W 22:19:38 10° WNW visible
29 May 4.7 21:35:48 10° SSW 21:40:16 31° W 21:44:45 10° NW visible
